Вернуться в каталог

THOR ABLESTAR DEB

АктивенLEO
NORAD 409·DEBRIS·🇺🇸 United States

Запущен Jun 29, 1961 с Cape Canaveral Space Force Station

Loading…

Ближайшие Пролёты (ближайшие 24 часа)

TLE

СвежийSource: Space-Track

Эпоха: Sep 13, 2026, 23:55 UTC

1 00409U 61015EJ  26256.99676911  .00000688  00000-0  29911-3 0  9992
2 00409  66.7115 117.7870 0056968 114.8217 245.8821 14.29116767353993

Отслеживайте THOR ABLESTAR DEB в реальном времени с AllMySat

Download on the App Store